Weather History for Yuma MCAS, AZ

Change the Weather History Date:

Wednesday, February 20, 2013

  Actual Average Record
Temperature  
Mean Temperature 54 °F 63 °F  
Max Temperature 60 °F 75 °F 91 °F (1995)
Min Temperature 47 °F 51 °F 31 °F (1955)
Degree Days  
Heating Degree Days 11 4  
Month to date heating degree days 105 90  
Since 1 July heating degree days 626 598  
Cooling Degree Days 0 1  
Month to date cooling degree days 8 19  
Year to date cooling degree days 11 25  
Growing Degree Days 2 (Base 50)    
Moisture  
Dew Point 31 °F    
Average Humidity 44    
Maximum Humidity 66    
Minimum Humidity 21    
Precipitation  
Precipitation 0.01 in 0.02 in 1.23 in (1958)
Month to date precipitation 0.01 0.28  
Year to date precipitation 1.03 0.65  
Sea Level Pressure  
Sea Level Pressure 29.78 in    
Wind  
Wind Speed 9 mph (West)    
Max Wind Speed 21 mph    
Max Gust Speed 29 mph    
Visibility 10 miles    
Events Rain    
T = Trace of Precipitation, MM = Missing Value Source: NWS Daily Summary

Daily Weather History Graph

Daily Weather History Graph

Search for Another Location

Airport:

Trip Planner

Search our weather history database for the weather conditions in past years. The results will help you decide how hot, cold, wet, or windy it might be!

Date:

Astronomy

Feb. 20, 2013 Rise Set
Actual Time 7:15 AM MST 6:28 PM MST
Civil Twilight 6:50 AM MST 6:53 PM MST
Nautical Twilight 6:22 AM MST 7:22 PM MST
Astronomical Twilight 5:53 AM MST 7:50 PM MST
Moon 2:03 PM MST (2/20) 3:29 AM MST (2/20)
Length of Visible Light 12h 02m
Length of Day
11h 12m
Waxing Gibbous, 76% of the Moon is Illuminated
Feb 20
Waxing Gibbous
Feb 25
Full
Mar 4
Last Quarter
Mar 11
New
Mar 19
First Quarter

Hourly Weather History & Observations

Time (MST) Temp. Dew Point Humidity Pressure Visibility Wind Dir Wind Speed Gust Speed Precip Events Conditions
12:55 AM 53.1 °F 33.1 °F 47% 29.71 in 10.0 mi SW 4.6 mph - N/A   Mostly Cloudy
1:55 AM 51.1 °F 35.1 °F 54% 29.72 in 10.0 mi Calm Calm - N/A   Mostly Cloudy
2:55 AM 51.1 °F 35.1 °F 54% 29.69 in 10.0 mi NE 3.5 mph - N/A   Mostly Cloudy
3:55 AM 52.0 °F 35.1 °F 53% 29.67 in 10.0 mi Calm Calm - N/A   Mostly Cloudy
4:55 AM 50.0 °F 37.0 °F 61% 29.69 in 10.0 mi West 9.2 mph - 0.00 in Rain Light Rain
5:55 AM 48.9 °F 39.9 °F 71% 29.70 in 10.0 mi WSW 5.8 mph - 0.01 in   Overcast
6:55 AM 48.9 °F 37.0 °F 64% 29.70 in 10.0 mi WSW 11.5 mph - N/A   Mostly Cloudy
7:55 AM 46.9 °F 36.0 °F 66% 29.73 in 10.0 mi West 6.9 mph - N/A   Scattered Clouds
8:55 AM 51.1 °F 30.9 °F 46% 29.74 in 10.0 mi West 15.0 mph 20.7 mph N/A   Scattered Clouds
9:55 AM 51.1 °F 30.9 °F 46% 29.77 in 10.0 mi West 13.8 mph 21.9 mph N/A   Mostly Cloudy
10:55 AM 54.0 °F 32.0 °F 43% 29.77 in 10.0 mi West 15.0 mph 23.0 mph N/A   Mostly Cloudy
11:55 AM 57.0 °F 28.9 °F 34% 29.77 in 10.0 mi West 17.3 mph 24.2 mph N/A   Mostly Cloudy
12:55 PM 57.0 °F 26.1 °F 30% 29.76 in 10.0 mi West 10.4 mph 20.7 mph N/A   Mostly Cloudy
1:55 PM 57.9 °F 23.0 °F 26% 29.76 in 10.0 mi WNW 13.8 mph - N/A   Mostly Cloudy
2:00 PM - - N/A% - - North - - N/A   Unknown
2:55 PM 59.0 °F 19.9 °F 22% 29.77 in 10.0 mi NW 19.6 mph 27.6 mph N/A   Mostly Cloudy
3:55 PM 59.0 °F 23.0 °F 25% 29.78 in 10.0 mi NW 15.0 mph 23.0 mph N/A   Mostly Cloudy
4:55 PM 59.0 °F 24.1 °F 26% 29.79 in 10.0 mi NW 11.5 mph - N/A   Scattered Clouds
5:55 PM 57.9 °F 26.1 °F 30% 29.82 in 10.0 mi NW 9.2 mph - N/A   Scattered Clouds
6:55 PM 55.9 °F 28.0 °F 34% 29.85 in 10.0 mi WNW 3.5 mph - N/A   Scattered Clouds
7:20 PM - - N/A% - - North - - N/A   Unknown
7:21 PM - - N/A% - - North - - N/A   Unknown
7:55 PM 55.0 °F 28.9 °F 37% 29.88 in 10.0 mi West 5.8 mph - N/A   Mostly Cloudy
8:55 PM 53.1 °F 30.9 °F 43% 29.89 in 10.0 mi West 9.2 mph - N/A   Clear
9:55 PM 50.0 °F 32.0 °F 50% 29.93 in 10.0 mi West 5.8 mph - N/A   Clear
10:55 PM 48.0 °F 32.0 °F 54% 29.94 in 10.0 mi SW 4.6 mph - N/A   Clear
11:55 PM 46.9 °F 32.0 °F 56% 29.93 in 10.0 mi Calm Calm - N/A   Clear